DW7888 Weather Reports


time (UTC)temp
C
wind
direction
speed
KPH
gust
KPH
rain 1hr
cm
rain 24hr
cm
rain mn
cm
humidity
%
barometer
mb
20260831142503 27 360 0.0 4.8 0.00 0.00 0.00 80 1020.1
20260831142011 26 336 0.0 3.2 0.00 0.00 0.00 81 1020.2
20260831141519 26 47 0.0 3.2 0.00 0.00 0.00 81 1020.1
20260831141005 26 5 0.0 6.4 0.00 0.00 0.00 82 1020.2
20260831140507 26 5 0.0 6.4 0.00 0.00 0.00 81 1020.1
20260831140026 26 355 0.0 3.2 0.00 0.00 0.00 82 1020.2
20260831135504 26 355 0.0 4.8 0.00 0.00 0.00 82 1020.2
20260831135010 26 355 0.0 4.8 0.00 0.00 0.00 82 1020.2
20260831134527 26 5 1.6 3.2 0.00 0.00 0.00 82 1020.1
20260831134005 26 9 0.0 6.4 0.00 0.00 0.00 83 1020.1
20260831133511 26 344 0.0 8.0 0.00 0.00 0.00 82 1020.1
20260831133027 26 350 3.2 8.0 0.00 0.00 0.00 82 1020.1
20260831132503 26 348 1.6 8.0 0.00 0.00 0.00 83 1020.1
20260831132012 26 193 0.0 4.8 0.00 0.00 0.00 84 1020.1
20260831131527 25 61 0.0 4.8 0.00 0.00 0.00 83 1020.0
20260831131007 25 13 0.0 4.8 0.00 0.00 0.00 85 1020.2
20260831130513 25 5 0.0 4.8 0.00 0.00 0.00 83 1020.2
20260831130026 25 355 0.0 6.4 0.00 0.00 0.00 84 1020.3
20260831125511 25 346 0.0 6.4 0.00 0.00 0.00 84 1020.3
20260831125016 25 360 1.6 4.8 0.00 0.00 0.00 84 1020.2
20260831124527 25 352 1.6 4.8 0.00 0.00 0.00 84 1020.1
20260831124005 25 333 0.0 4.8 0.00 0.00 0.00 84 1020.1
20260831123512 25 156 0.0 4.8 0.00 0.00 0.00 85 1020.1
20260831123029 25 76 0.0 6.4 0.00 0.00 0.00 85 1020.0
20260831122506 25 121 1.6 6.4 0.00 0.00 0.00 86 1020.0
20260831122011 24 121 0.0 3.2 0.00 0.00 0.00 87 1020.0
20260831121537 24 28 0.0 4.8 0.00 0.00 0.00 87 1019.9
20260831121008 23 26 0.0 4.8 0.00 0.00 0.00 88 1019.8
20260831120518 23 111 0.0 3.2 0.00 0.00 0.00 89 1019.7
20260831120030 23 5 0.0 0.0 0.00 0.00 0.00 89 1019.8
20260831115508 23 34 0.0 0.0 0.00 0.00 0.00 90 1019.8
20260831115014 23 34 0.0 0.0 0.00 0.00 0.00 90 1019.8
20260831114533 22 5 0.0 0.0 0.00 0.00 0.00 90 1019.8
20260831114008 22 5 0.0 0.0 0.00 0.00 0.00 91 1019.8
20260831113515 22 5 0.0 0.0 0.00 0.00 0.00 90 1019.8
20260831113033 22 5 0.0 0.0 0.00 0.00 0.00 90 1019.7
20260831112513 22 5 0.0 1.6 0.00 0.00 0.00 90 1019.6
20260831112014 22 5 0.0 1.6 0.00 0.00 0.00 90 1019.6
20260831111549 22 57 0.0 0.0 0.00 0.00 0.00 90 1019.5
20260831111010 22 57 0.0 1.6 0.00 0.00 0.00 90 1019.5
20260831110512 22 57 0.0 1.6 0.00 0.00 0.00 90 1019.4
20260831110006 22 57 0.0 1.6 0.00 0.00 0.00 90 1019.4
20260831105511 22 26 0.0 0.0 0.00 0.00 0.00 90 1019.4
20260831105019 22 26 0.0 0.0 0.00 0.00 0.00 89 1019.4
20260831104511 22 26 0.0 0.0 0.00 0.00 0.00 89 1019.5
20260831104010 22 26 0.0 0.0 0.00 0.00 0.00 89 1019.5
20260831103515 22 26 0.0 0.0 0.00 0.00 0.00 89 1019.5
20260831103007 22 26 0.0 0.0 0.00 0.00 0.00 89 1019.4
20260831102511 22 26 0.0 0.0 0.00 0.00 0.00 89 1019.4
20260831102016 22 26 0.0 0.0 0.00 0.00 0.00 89 1019.4
20260831101512 22 26 0.0 0.0 0.00 0.00 0.00 89 1019.3
20260831101015 22 26 0.0 0.0 0.00 0.00 0.00 89 1019.2
20260831100516 22 26 0.0 0.0 0.00 0.00 0.00 89 1019.2
20260831100013 22 26 0.0 0.0 0.00 0.00 0.00 89 1019.1
20260831095512 22 26 0.0 0.0 0.00 0.00 0.00 89 1019.2
20260831095016 22 26 0.0 0.0 0.00 0.00 0.00 88 1019.2
20260831094517 23 26 0.0 0.0 0.00 0.00 0.00 88 1019.2
20260831094003 23 26 0.0 0.0 0.00 0.00 0.00 88 1019.2
20260831093506 23 26 0.0 0.0 0.00 0.00 0.00 88 1019.1
20260831093015 23 26 0.0 0.0 0.00 0.00 0.00 88 1019.1
20260831092503 23 26 0.0 0.0 0.00 0.00 0.00 87 1019.1
20260831092003 23 26 0.0 1.6 0.00 0.00 0.00 87 1019.1
20260831091512 23 26 0.0 1.6 0.00 0.00 0.00 87 1019.2
20260831091004 23 26 0.0 1.6 0.00 0.00 0.00 86 1019.1
20260831090503 23 26 0.0 3.2 0.00 0.00 0.00 86 1019.2
20260831090017 23 26 0.0 3.2 0.00 0.00 0.00 86 1019.1
20260831085502 23 26 0.0 3.2 0.00 0.00 0.00 86 1019.1
20260831085006 23 67 0.0 3.2 0.00 0.00 0.00 86 1019.0
20260831084533 23 5 0.0 1.6 0.00 0.00 0.00 86 1019.1
20260831084003 23 51 0.0 1.6 0.00 0.00 0.00 86 1019.1
20260831083507 23 51 0.0 4.8 0.00 0.00 0.00 86 1019.1
20260831083016 23 51 0.0 4.8 0.00 0.00 0.00 86 1019.1
20260831082503 23 11 0.0 4.8 0.00 0.00 0.00 86 1019.1
20260831082006 23 11 0.0 4.8 0.00 0.00 0.00 86 1019.1
20260831081524 23 33 0.0 4.8 0.00 0.00 0.00 87 1019.1
20260831081016 23 56 0.0 1.6 0.00 0.00 0.00 87 1019.1
20260831080507 23 92 0.0 3.2 0.00 0.00 0.00 87 1019.1
20260831080020 23 26 0.0 3.2 0.00 0.00 0.00 87 1019.1
20260831075503 23 102 0.0 3.2 0.00 0.00 0.00 88 1019.1
20260831075008 23 58 0.0 3.2 0.00 0.00 0.00 89 1019.1
20260831074535 23 180 0.0 3.2 0.00 0.00 0.00 90 1019.1
20260831074006 22 97 0.0 1.6 0.00 0.00 0.00 90 1019.1
20260831073508 22 24 0.0 0.0 0.00 0.00 0.00 90 1019.2
20260831073055 22 24 0.0 1.6 0.00 0.00 0.00 90 1019.2
20260831072504 22 24 0.0 1.6 0.00 0.00 0.00 90 1019.2
20260831072009 22 24 0.0 1.6 0.00 0.00 0.00 89 1019.2
20260831071522 22 11 0.0 1.6 0.00 0.00 0.00 89 1019.2
20260831071003 23 11 0.0 1.6 0.00 0.00 0.00 89 1019.3
20260831070510 23 11 0.0 1.6 0.00 0.00 0.00 89 1019.3
20260831070031 23 11 0.0 0.0 0.00 0.00 0.00 89 1019.3
20260831065502 23 11 0.0 0.0 0.00 0.00 0.00 88 1019.3
20260831065008 23 11 0.0 1.6 0.00 0.00 0.00 88 1019.3
20260831064534 23 11 0.0 3.2 0.00 0.00 0.00 89 1019.3
20260831064006 23 11 0.0 3.2 0.00 0.00 0.00 89 1019.5
20260831063510 23 11 0.0 3.2 0.00 0.00 0.00 89 1019.5
20260831063028 22 22 0.0 3.2 0.00 0.00 0.00 90 1019.4
20260831062506 22 5 0.0 3.2 0.00 0.00 0.00 90 1019.3
20260831062012 22 5 0.0 1.6 0.00 0.00 0.00 91 1019.3
20260831061536 22 5 0.0 1.6 0.00 0.00 0.00 91 1019.4
20260831061008 22 5 0.0 1.6 0.00 0.00 0.00 91 1019.4
20260831060512 22 5 0.0 0.0 0.00 0.00 0.00 91 1019.5
20260831060004 22 5 0.0 0.0 0.00 0.00 0.00 91 1019.5
20260831055507 22 5 0.0 0.0 0.00 0.00 0.00 90 1019.6
20260831055011 22 5 0.0 1.6 0.00 0.00 0.00 90 1019.6
20260831054505 22 5 0.0 1.6 0.00 0.00 0.00 90 1019.6
20260831054007 23 5 0.0 0.0 0.00 0.00 0.00 90 1019.6
20260831053514 23 5 0.0 0.0 0.00 0.00 0.00 90 1019.6
20260831053012 23 5 0.0 0.0 0.00 0.00 0.00 89 1019.7
20260831052511 23 5 0.0 0.0 0.00 0.00 0.00 89 1019.7
20260831052016 23 5 0.0 0.0 0.00 0.00 0.00 89 1019.7
20260831051506 23 5 0.0 1.6 0.00 0.00 0.00 89 1019.8
20260831051013 23 5 0.0 1.6 0.00 0.00 0.00 88 1019.7
20260831050518 23 5 0.0 1.6 0.00 0.00 0.00 88 1019.8
20260831050018 23 5 0.0 1.6 0.00 0.00 0.00 87 1019.8
20260831045507 23 5 0.0 1.6 0.00 0.00 0.00 87 1019.9
20260831045016 23 5 0.0 0.0 0.00 0.00 0.00 87 1019.8
20260831044504 23 5 0.0 0.0 0.00 0.00 0.00 86 1019.8
20260831044013 23 5 0.0 0.0 0.00 0.00 0.00 86 1019.8
20260831043511 24 5 0.0 0.0 0.00 0.00 0.00 85 1019.8
20260831043005 24 5 0.0 0.0 0.00 0.00 0.00 85 1019.8
20260831042511 24 5 0.0 0.0 0.00 0.00 0.00 85 1019.9
20260831042016 24 5 0.0 1.6 0.00 0.00 0.00 85 1019.9
20260831041505 24 5 0.0 1.6 0.00 0.00 0.00 85 1019.9
20260831041012 24 5 0.0 1.6 0.00 0.00 0.00 85 1019.9
20260831040515 24 355 0.0 3.2 0.00 0.00 0.00 85 1019.9
20260831040027 24 355 0.0 3.2 0.00 0.00 0.00 85 1019.9
20260831035511 24 132 0.0 3.2 0.00 0.00 0.00 86 1019.9
20260831035017 24 132 0.0 3.2 0.00 0.00 0.00 86 1019.8
20260831034508 24 158 0.0 3.2 0.00 0.00 0.00 87 1019.8
20260831034010 24 160 0.0 0.0 0.00 0.00 0.00 88 1020.0
20260831033514 24 160 0.0 0.0 0.00 0.00 0.00 88 1020.0
20260831033012 24 160 0.0 0.0 0.00 0.00 0.00 88 1020.0
20260831032514 24 160 0.0 0.0 0.00 0.00 0.00 87 1020.1
20260831032016 24 160 0.0 0.0 0.00 0.00 0.00 87 1020.1
20260831031513 24 160 0.0 0.0 0.00 0.00 0.00 87 1020.1
20260831031014 24 160 0.0 0.0 0.00 0.00 0.00 86 1020.1
20260831030515 25 160 0.0 0.0 0.00 0.00 0.00 85 1020.1
20260831030024 25 160 0.0 0.0 0.00 0.00 0.00 85 1020.1
20260831025515 25 160 0.0 0.0 0.00 0.00 0.00 84 1020.1
20260831025016 25 160 0.0 0.0 0.00 0.00 0.00 83 1020.1
20260831024511 25 160 0.0 0.0 0.00 0.00 0.00 83 1020.1
20260831024012 25 160 0.0 0.0 0.00 0.00 0.00 83 1020.1
20260831023522 25 160 0.0 1.6 0.00 0.00 0.00 83 1020.1
20260831023012 25 160 0.0 1.6 0.00 0.00 0.00 83 1020.1
20260831022519 25 160 0.0 3.2 0.00 0.00 0.00 83 1020.1
20260831022016 25 191 0.0 3.2 0.00 0.00 0.00 84 1020.2
20260831021516 25 171 0.0 3.2 0.00 0.00 0.00 85 1020.2
20260831021013 24 141 0.0 1.6 0.00 0.00 0.00 86 1020.1
20260831020516 24 144 0.0 1.6 0.00 0.00 0.00 87 1020.2
20260831020015 24 152 0.0 0.0 0.00 0.00 0.00 87 1020.2
20260831015513 24 152 0.0 0.0 0.00 0.00 0.00 87 1020.2
20260831015017 24 152 0.0 0.0 0.00 0.00 0.00 86 1020.2
20260831014517 24 152 0.0 0.0 0.00 0.00 0.00 86 1020.2
20260831014016 24 152 0.0 0.0 0.00 0.00 0.00 85 1020.2
20260831013517 24 152 0.0 0.0 0.00 0.00 0.00 85 1020.1
20260831013016 24 152 0.0 0.0 0.00 0.00 0.00 86 1020.1
20260831012518 24 152 0.0 0.0 0.00 0.00 0.00 85 1020.1
20260831012018 24 152 0.0 0.0 0.00 0.00 0.00 85 1020.2
20260831011529 24 152 0.0 0.0 0.00 0.00 0.00 85 1020.2
20260831011018 24 152 0.0 0.0 0.00 0.00 0.00 85 1020.1
20260831010519 24 152 0.0 0.0 0.00 0.00 0.00 85 1020.1
20260831010020 24 152 0.0 0.0 0.00 0.00 0.00 85 1020.0
20260831005514 25 152 0.0 0.0 0.00 0.00 0.00 84 1020.0
20260831005018 25 152 0.0 0.0 0.00 0.00 0.00 84 1019.9
20260831004534 25 152 0.0 0.0 0.00 0.00 0.00 83 1019.8
20260831004002 25 152 0.0 0.0 0.00 0.00 0.00 83 1019.6
20260831003510 25 152 0.0 0.0 0.00 0.00 0.00 82 1019.6
20260831003006 25 152 0.0 1.6 0.00 0.00 0.00 82 1019.6
20260831002502 25 152 0.0 1.6 0.00 0.00 0.00 82 1019.4
20260831002007 25 152 0.0 0.0 0.00 0.00 0.00 81 1019.4
20260831001508 26 152 0.0 0.0 0.00 0.00 0.00 81 1019.4
20260831001005 26 152 0.0 0.0 0.00 0.00 0.00 81 1019.3
20260831000511 26 152 0.0 0.0 0.00 0.00 0.00 80 1019.2
20260831000006 26 152 0.0 0.0 0.00 0.00 0.00 80 1019.3
20260830235504 26 152 0.0 0.0 0.00 0.00 0.00 79 1019.4
20260830235013 27 152 0.0 0.0 0.00 0.00 0.00 78 1019.3
20260830234505 27 152 0.0 0.0 0.00 0.00 0.00 77 1019.3
20260830234004 27 152 0.0 0.0 0.00 0.00 0.00 77 1019.3
20260830233513 27 152 0.0 0.0 0.00 0.00 0.00 76 1019.4
20260830233007 28 152 0.0 0.0 0.00 0.00 0.00 74 1019.4
20260830232506 28 152 0.0 0.0 0.00 0.00 0.00 73 1019.4
20260830232010 28 152 0.0 1.6 0.00 0.00 0.00 72 1019.4
20260830231503 28 152 0.0 3.2 0.00 0.00 0.00 70 1019.5
20260830231008 29 152 0.0 3.2 0.00 0.00 0.00 69 1019.5
20260830230512 29 152 0.0 3.2 0.00 0.00 0.00 67 1019.5
20260830230004 29 121 0.0 3.2 0.00 0.00 0.00 67 1019.5
20260830225508 29 111 0.0 3.2 0.00 0.00 0.00 67 1019.4
20260830225017 29 165 0.0 3.2 0.00 0.00 0.00 67 1019.4
20260830224504 30 115 0.0 3.2 0.00 0.00 0.00 67 1019.4
20260830224008 30 140 0.0 3.2 0.00 0.00 0.00 66 1019.3
20260830223511 30 126 0.0 6.4 0.00 0.00 0.00 65 1019.4
20260830223007 30 148 0.0 6.4 0.00 0.00 0.00 65 1019.3
20260830222508 30 175 1.6 4.8 0.00 0.00 0.00 65 1019.4
20260830222011 30 111 1.6 6.4 0.00 0.00 0.00 64 1019.3
20260830221503 30 175 1.6 6.4 0.00 0.00 0.00 63 1019.4
20260830221006 30 110 1.6 3.2 0.00 0.00 0.00 65 1019.3
20260830220512 30 350 0.0 4.8 0.00 0.00 0.00 64 1019.4
20260830220014 30 90 0.0 11.3 0.00 0.00 0.00 63 1019.4
20260830215508 30 178 1.6 11.3 0.00 0.00 0.00 63 1019.4
20260830215016 30 82 3.2 9.7 0.00 0.00 0.00 63 1019.4
20260830214508 30 51 0.0 6.4 0.00 0.00 0.00 62 1019.3
20260830214010 30 124 1.6 6.4 0.00 0.00 0.00 62 1019.4
20260830213513 30 103 0.0 6.4 0.00 0.00 0.00 63 1019.3
20260830213006 30 132 1.6 4.8 0.00 0.00 0.00 62 1019.3
20260830212508 30 32 0.0 8.0 0.00 0.00 0.00 63 1019.2
20260830212016 30 205 0.0 8.0 0.00 0.00 0.00 62 1019.2
20260830211509 30 63 0.0 8.0 0.00 0.00 0.00 62 1019.1
20260830211012 30 198 0.0 11.3 0.00 0.00 0.00 62 1019.1
20260830210516 31 139 3.2 11.3 0.00 0.00 0.00 61 1019.1
20260830210019 31 176 1.6 6.4 0.00 0.00 0.00 62 1019.3
20260830205513 31 355 0.0 12.9 0.00 0.00 0.00 60 1019.2
20260830205013 31 227 0.0 12.9 0.00 0.00 0.00 63 1019.3
20260830204508 31 110 3.2 12.9 0.00 0.00 0.00 61 1019.3
20260830204013 31 154 1.6 9.7 0.00 0.00 0.00 61 1019.3
20260830203514 31 206 3.2 8.0 0.00 0.00 0.00 61 1019.4
20260830203008 31 117 1.6 8.0 0.00 0.00 0.00 61 1019.4
20260830202512 31 153 1.6 8.0 0.00 0.00 0.00 61 1019.6
20260830202017 31 101 1.6 4.8 0.00 0.00 0.00 60 1019.6
20260830201512 31 165 0.0 4.8 0.00 0.00 0.00 62 1019.7
20260830201011 31 173 1.6 4.8 0.00 0.00 0.00 61 1019.7
20260830200516 31 123 1.6 4.8 0.00 0.00 0.00 63 1019.7
20260830200010 31 144 0.0 4.8 0.00 0.00 0.00 65 1019.7
20260830195511 31 60 1.6 4.8 0.00 0.00 0.00 63 1019.9
20260830195017 31 24 0.0 6.4 0.00 0.00 0.00 62 1020.0
20260830194513 31 28 1.6 6.4 0.00 0.00 0.00 61 1020.0
20260830194015 31 337 3.2 6.4 0.00 0.00 0.00 61 1020.1
20260830193513 31 86 3.2 6.4 0.00 0.00 0.00 63 1020.2
20260830193013 31 18 1.6 8.0 0.00 0.00 0.00 62 1020.3
20260830192513 31 28 1.6 8.0 0.00 0.00 0.00 63 1020.6
20260830192004 31 355 1.6 6.4 0.00 0.00 0.00 64 1020.6
20260830191553 31 352 3.2 6.4 0.00 0.00 0.00 63 1020.6
20260830191013 30 355 3.2 6.4 0.00 0.00 0.00 65 1020.7
20260830190503 30 5 0.0 4.8 0.00 0.00 0.00 65 1020.8
20260830190019 31 175 1.6 6.4 0.00 0.00 0.00 63 1020.9
20260830185516 30 199 1.6 9.7 0.00 0.00 0.00 66 1021.0
20260830185013 31 303 3.2 9.7 0.00 0.00 0.00 63 1020.9
20260830184524 31 325 1.6 9.7 0.00 0.00 0.00 65 1021.0
20260830184017 31 5 0.0 6.4 0.00 0.00 0.00 67 1021.1
20260830183506 30 126 1.6 4.8 0.00 0.00 0.00 65 1021.2
20260830183020 31 122 0.0 11.3 0.00 0.00 0.00 69 1021.3
20260830182519 31 17 1.6 11.3 0.00 0.00 0.00 66 1021.4
20260830182010 30 338 1.6 9.7 0.00 0.00 0.00 65 1021.5
20260830181520 30 350 1.6 9.7 0.00 0.00 0.00 66 1021.5
20260830181014 30 146 3.2 9.7 0.00 0.00 0.00 65 1021.6
20260830180505 30 324 0.0 6.4 0.00 0.00 0.00 64 1021.8
20260830180033 30 61 1.6 4.8 0.00 0.00 0.00 69 1021.8
20260830175518 30 27 0.0 8.0 0.00 0.00 0.00 67 1021.9
20260830175010 30 121 1.6 8.0 0.00 0.00 0.00 66 1022.0
20260830174530 30 141 1.6 6.4 0.00 0.00 0.00 69 1022.0
20260830174018 30 10 1.6 6.4 0.00 0.00 0.00 67 1022.1
20260830173509 29 339 1.6 6.4 0.00 0.00 0.00 68 1022.1
20260830173026 30 116 0.0 8.0 0.00 0.00 0.00 67 1022.2
20260830172519 29 142 3.2 8.0 0.00 0.00 0.00 75 1022.2
20260830172008 28 342 3.2 8.0 0.00 0.00 0.00 72 1022.3
20260830171523 28 106 1.6 6.4 0.00 0.00 0.00 70 1022.3
20260830171015 28 352 1.6 9.7 0.00 0.00 0.00 71 1022.4
20260830170512 28 321 4.8 9.7 0.00 0.00 0.00 71 1022.3
20260830170025 28 39 4.8 9.7 0.00 0.00 0.00 71 1022.4
20260830165519 29 147 0.0 6.4 0.00 0.00 0.00 70 1022.5
20260830165019 29 95 1.6 6.4 0.00 0.00 0.00 70 1022.5
20260830164527 29 153 1.6 9.7 0.00 0.00 0.00 68 1022.5
20260830164017 28 98 3.2 9.7 0.00 0.00 0.00 71 1022.5
20260830163512 28 153 1.6 8.0 0.00 0.00 0.00 71 1022.6
20260830163037 28 355 3.2 9.7 0.00 0.00 0.00 72 1022.6
20260830162515 28 121 0.0 9.7 0.00 0.00 0.00 70 1022.7
20260830162011 28 172 3.2 8.0 0.00 0.00 0.00 71 1022.7
20260830161527 27 188 3.2 6.4 0.00 0.00 0.00 75 1022.7
20260830161024 27 360 0.0 6.4 0.00 0.00 0.00 76 1022.7
20260830160511 27 127 1.6 6.4 0.00 0.00 0.00 77 1022.8
20260830160038 27 40 0.0 8.0 0.00 0.00 0.00 77 1022.9
20260830155521 27 84 0.0 9.7 0.00 0.00 0.00 75 1023.0
20260830155015 27 351 3.2 9.7 0.00 0.00 0.00 75 1023.0
20260830154529 28 326 0.0 4.8 0.00 0.00 0.00 71 1023.0
20260830154004 27 101 1.6 6.4 0.00 0.00 0.00 74 1023.1
20260830153504 27 111 3.2 9.7 0.00 0.00 0.00 75 1023.1
20260830153004 27 168 4.8 9.7 0.00 0.00 0.00 74 1023.1
20260830152507 27 109 0.0 8.0 0.00 0.00 0.00 75 1023.1
20260830152003 27 105 0.0 9.7 0.00 0.00 0.00 77 1023.1
20260830151503 27 120 3.2 9.7 0.00 0.00 0.00 75 1023.2
20260830151003 27 349 1.6 9.7 0.00 0.00 0.00 78 1023.1
20260830150503 27 143 0.0 9.7 0.00 0.00 0.00 78 1023.0
20260830150016 27 176 1.6 6.4 0.00 0.00 0.00 75 1023.0
20260830145504 26 117 3.2 8.0 0.00 0.00 0.00 77 1023.1
20260830145003 26 159 3.2 8.0 0.00 0.00 0.00 78 1023.1
20260830144513 26 159 3.2 9.7 0.00 0.00 0.00 79 1023.2
20260830144003 26 100 3.2 9.7 0.00 0.00 0.00 78 1023.2
20260830143503 27 138 4.8 9.7 0.00 0.00 0.00 79 1023.1